| time (UTC) | temp F | wind direction | speed MPH | gust MPH | rain 1hr in | rain 24hr in | rain mn in | humidity % | barometer mb |
| 20260902013004 | 72 | 90 | 10.0 | 16.0 | 0.00 | 0.00 | 0.00 | 40 | 1012.1 |
| 20260902011510 | 73 | 88 | 7.0 | 11.0 | 0.00 | 0.00 | 0.00 | 39 | 1012.3 |
| 20260902010013 | 74 | 92 | 7.0 | 11.0 | 0.00 | 0.00 | 0.00 | 37 | 1012.2 |
| 20260902004526 | 75 | 136 | 3.0 | 5.0 | 0.00 | 0.00 | 0.00 | 33 | 1012.3 |
| 20260902003030 | 76 | 173 | 0.0 | 4.0 | 0.00 | 0.00 | 0.00 | 30 | 1012.5 |
| 20260902001508 | 77 | 123 | 1.0 | 9.0 | 0.00 | 0.00 | 0.00 | 26 | 1012.4 |
| 20260902000022 | 78 | 121 | 4.0 | 6.0 | 0.00 | 0.00 | 0.00 | 27 | 1012.6 |
| 20260901234517 | 79 | 312 | 1.0 | 4.0 | 0.00 | 0.00 | 0.00 | 24 | 1012.8 |
| 20260901233024 | 78 | 335 | 0.0 | 3.0 | 0.00 | 0.00 | 0.00 | 29 | 1013.0 |
| 20260901231533 | 78 | 53 | 2.0 | 3.0 | 0.00 | 0.00 | 0.00 | 27 | 1013.0 |
| 20260901230027 | 77 | 46 | 1.0 | 3.0 | 0.00 | 0.00 | 0.00 | 26 | 1013.2 |
| 20260901224520 | 77 | 85 | 0.0 | 4.0 | 0.00 | 0.00 | 0.00 | 25 | 1013.4 |
| 20260901223024 | 77 | 92 | 2.0 | 7.0 | 0.00 | 0.00 | 0.00 | 28 | 1013.5 |
| 20260901221526 | 77 | 9 | 1.0 | 3.0 | 0.00 | 0.00 | 0.00 | 27 | 1013.6 |
| 20260901220032 | 77 | 308 | 2.0 | 6.0 | 0.00 | 0.00 | 0.00 | 30 | 1013.9 |
| 20260901214512 | 77 | 251 | 4.0 | 9.0 | 0.00 | 0.00 | 0.00 | 28 | 1014.1 |
| 20260901213050 | 77 | 159 | 1.0 | 7.0 | 0.00 | 0.00 | 0.00 | 28 | 1014.2 |
| 20260901211536 | 76 | 225 | 3.0 | 9.0 | 0.00 | 0.00 | 0.00 | 33 | 1014.7 |
| 20260901210035 | 76 | 222 | 4.0 | 11.0 | 0.00 | 0.00 | 0.00 | 31 | 1014.9 |
| 20260901204531 | 75 | 218 | 4.0 | 10.0 | 0.00 | 0.00 | 0.00 | 33 | 1015.0 |
| 20260901203031 | 75 | 151 | 3.0 | 10.0 | 0.00 | 0.00 | 0.00 | 32 | 1015.2 |
| 20260901201523 | 75 | 179 | 7.0 | 11.0 | 0.00 | 0.00 | 0.00 | 32 | 1015.4 |
| 20260901200039 | 75 | 188 | 6.0 | 10.0 | 0.00 | 0.00 | 0.00 | 34 | 1015.5 |
| 20260901194530 | 73 | 128 | 4.0 | 15.0 | 0.00 | 0.00 | 0.00 | 37 | 1015.7 |
| 20260901193009 | 74 | 188 | 7.0 | 13.0 | 0.00 | 0.00 | 0.00 | 36 | 1015.9 |
| 20260901191513 | 71 | 95 | 7.0 | 10.0 | 0.00 | 0.00 | 0.00 | 37 | 1016.2 |
| 20260901190007 | 70 | 71 | 2.0 | 6.0 | 0.00 | 0.00 | 0.00 | 40 | 1016.4 |
| 20260901184509 | 69 | 329 | 3.0 | 6.0 | 0.00 | 0.00 | 0.00 | 43 | 1016.6 |
| 20260901183012 | 68 | 302 | 4.0 | 6.0 | 0.00 | 0.00 | 0.00 | 40 | 1016.6 |
| 20260901181516 | 69 | 96 | 1.0 | 8.0 | 0.00 | 0.00 | 0.00 | 39 | 1016.7 |
| 20260901180010 | 68 | 154 | 1.0 | 6.0 | 0.00 | 0.00 | 0.00 | 43 | 1016.8 |
| 20260901174508 | 69 | 145 | 3.0 | 14.0 | 0.00 | 0.00 | 0.00 | 41 | 1016.6 |
| 20260901173011 | 68 | 82 | 7.0 | 19.0 | 0.00 | 0.00 | 0.00 | 42 | 1016.6 |
| 20260901171520 | 68 | 172 | 14.0 | 18.0 | 0.00 | 0.00 | 0.00 | 41 | 1016.6 |
| 20260901170014 | 67 | 186 | 3.0 | 6.0 | 0.00 | 0.00 | 0.00 | 43 | 1016.5 |
| 20260901164510 | 65 | 196 | 4.0 | 9.0 | 0.00 | 0.00 | 0.00 | 45 | 1016.8 |
| 20260901163009 | 63 | 146 | 0.0 | 2.0 | 0.00 | 0.00 | 0.00 | 45 | 1017.0 |
| 20260901161512 | 62 | 69 | 1.0 | 2.0 | 0.00 | 0.00 | 0.00 | 42 | 1016.8 |
| 20260901160018 | 62 | 5 | 1.0 | 4.0 | 0.00 | 0.00 | 0.00 | 48 | 1016.6 |
| 20260901154518 | 64 | 34 | 1.0 | 7.0 | 0.00 | 0.00 | 0.00 | 43 | 1016.4 |
| 20260901153013 | 65 | 120 | 11.0 | 17.0 | 0.00 | 0.00 | 0.00 | 42 | 1016.5 |
| 20260901151512 | 59 | 146 | 5.0 | 11.0 | 0.00 | 0.00 | 0.00 | 43 | 1016.7 |
| 20260901150015 | 58 | 128 | 4.0 | 4.0 | 0.00 | 0.00 | 0.00 | 50 | 1017.1 |
| 20260901144520 | 58 | 78 | 0.0 | 2.0 | 0.00 | 0.00 | 0.00 | 58 | 1016.6 |
| 20260901143018 | 58 | 65 | 1.0 | 2.0 | 0.00 | 0.00 | 0.00 | 50 | 1016.6 |
| 20260901141507 | 58 | 220 | 1.0 | 2.0 | 0.00 | 0.00 | 0.00 | 52 | 1016.5 |
| 20260901140016 | 57 | 71 | 1.0 | 2.0 | 0.00 | 0.00 | 0.00 | 49 | 1016.3 |
| 20260901134520 | 55 | 123 | 2.0 | 2.0 | 0.00 | 0.00 | 0.00 | 51 | 1016.4 |
| 20260901133023 | 55 | 126 | 0.0 | 3.0 | 0.00 | 0.00 | 0.00 | 47 | 1016.3 |
| 20260901131526 | 56 | 78 | 1.0 | 2.0 | 0.00 | 0.00 | 0.00 | 44 | 1016.2 |
| 20260901130012 | 56 | 84 | 0.0 | 0.0 | 0.00 | 0.00 | 0.00 | 44 | 1016.2 |
| 20260901124517 | 55 | 76 | 0.0 | 2.0 | 0.00 | 0.00 | 0.00 | 44 | 1016.1 |
| 20260901123026 | 56 | 107 | 1.0 | 2.0 | 0.00 | 0.00 | 0.00 | 45 | 1016.1 |
| 20260901121534 | 58 | 86 | 1.0 | 2.0 | 0.00 | 0.00 | 0.00 | 41 | 1016.0 |
| 20260901120038 | 58 | 316 | 0.0 | 2.0 | 0.00 | 0.00 | 0.00 | 38 | 1015.7 |
| 20260901114517 | 59 | 84 | 0.0 | 1.0 | 0.00 | 0.00 | 0.00 | 37 | 1015.6 |
| 20260901113020 | 58 | 115 | 0.0 | 2.0 | 0.00 | 0.00 | 0.00 | 39 | 1015.7 |
| 20260901111526 | 58 | 90 | 0.0 | 3.0 | 0.00 | 0.00 | 0.00 | 39 | 1015.7 |
| 20260901110033 | 58 | 59 | 2.0 | 2.0 | 0.00 | 0.00 | 0.00 | 39 | 1016.0 |
| 20260901104532 | 59 | 117 | 0.0 | 0.0 | 0.00 | 0.00 | 0.00 | 38 | 1016.1 |
| 20260901103017 | 58 | 71 | 2.0 | 3.0 | 0.00 | 0.00 | 0.00 | 40 | 1016.0 |
| 20260901101504 | 57 | 15 | 0.0 | 1.0 | 0.00 | 0.00 | 0.00 | 41 | 1016.2 |
| 20260901100009 | 58 | 117 | 1.0 | 3.0 | 0.00 | 0.00 | 0.00 | 42 | 1016.2 |
| 20260901094516 | 59 | 61 | 3.0 | 3.0 | 0.00 | 0.00 | 0.00 | 39 | 1016.2 |
| 20260901093015 | 60 | 51 | 1.0 | 4.0 | 0.00 | 0.00 | 0.00 | 39 | 1016.4 |
| 20260901091525 | 59 | 118 | 2.0 | 5.0 | 0.00 | 0.00 | 0.00 | 39 | 1016.1 |
| 20260901090008 | 57 | 155 | 5.0 | 7.0 | 0.00 | 0.00 | 0.00 | 44 | 1016.3 |
| 20260901084507 | 60 | 211 | 2.0 | 3.0 | 0.00 | 0.00 | 0.00 | 41 | 1016.2 |
| 20260901083021 | 60 | 100 | 3.0 | 4.0 | 0.00 | 0.00 | 0.00 | 39 | 1016.3 |
| 20260901081519 | 57 | 80 | 1.0 | 2.0 | 0.00 | 0.00 | 0.00 | 42 | 1016.4 |
| 20260901080025 | 59 | 78 | 1.0 | 3.0 | 0.00 | 0.00 | 0.00 | 40 | 1016.6 |
| 20260901074504 | 59 | 87 | 0.0 | 0.0 | 0.00 | 0.00 | 0.00 | 39 | 1016.6 |
| 20260901073011 | 60 | 37 | 0.0 | 1.0 | 0.00 | 0.00 | 0.00 | 38 | 1016.4 |
| 20260901071517 | 61 | 59 | 0.0 | 3.0 | 0.00 | 0.00 | 0.00 | 36 | 1016.6 |
| 20260901070027 | 62 | 227 | 1.0 | 4.0 | 0.00 | 0.00 | 0.00 | 33 | 1016.6 |
| 20260901064538 | 62 | 107 | 0.0 | 3.0 | 0.00 | 0.00 | 0.00 | 35 | 1016.4 |
| 20260901063009 | 61 | 103 | 3.0 | 4.0 | 0.00 | 0.00 | 0.00 | 35 | 1016.5 |
| 20260901061515 | 62 | 191 | 0.0 | 3.0 | 0.00 | 0.00 | 0.00 | 34 | 1016.6 |
| 20260901060021 | 63 | 336 | 1.0 | 3.0 | 0.00 | 0.00 | 0.00 | 33 | 1016.4 |
| 20260901054526 | 62 | 76 | 2.0 | 4.0 | 0.00 | 0.00 | 0.00 | 34 | 1016.5 |
| 20260901053029 | 63 | 103 | 1.0 | 4.0 | 0.00 | 0.00 | 0.00 | 33 | 1016.6 |
| 20260901051512 | 64 | 119 | 2.0 | 3.0 | 0.00 | 0.00 | 0.00 | 32 | 1016.6 |
| 20260901050017 | 64 | 90 | 0.0 | 3.0 | 0.00 | 0.00 | 0.00 | 31 | 1016.7 |
| 20260901044523 | 66 | 128 | 2.0 | 4.0 | 0.00 | 0.00 | 0.00 | 30 | 1016.7 |
| 20260901043029 | 66 | 76 | 2.0 | 4.0 | 0.00 | 0.00 | 0.00 | 28 | 1016.7 |
| 20260901041531 | 65 | 109 | 3.0 | 6.0 | 0.00 | 0.00 | 0.00 | 30 | 1016.8 |
| 20260901040017 | 66 | 42 | 1.0 | 4.0 | 0.00 | 0.00 | 0.00 | 29 | 1017.0 |
| 20260901034526 | 67 | 61 | 1.0 | 2.0 | 0.00 | 0.00 | 0.00 | 28 | 1017.1 |
| 20260901033031 | 66 | 98 | 3.0 | 4.0 | 0.00 | 0.00 | 0.00 | 30 | 1017.0 |
| 20260901031532 | 66 | 107 | 2.0 | 3.0 | 0.00 | 0.00 | 0.00 | 32 | 1016.9 |
| 20260901030032 | 65 | 108 | 3.0 | 6.0 | 0.00 | 0.00 | 0.00 | 31 | 1016.9 |
| 20260901024519 | 65 | 94 | 3.0 | 4.0 | 0.00 | 0.00 | 0.00 | 32 | 1016.8 |
| 20260901023037 | 66 | 107 | 2.0 | 4.0 | 0.00 | 0.00 | 0.00 | 31 | 1016.8 |
| 20260901021534 | 68 | 117 | 3.0 | 4.0 | 0.00 | 0.00 | 0.00 | 30 | 1016.7 |
| 20260901020031 | 70 | 111 | 0.0 | 3.0 | 0.00 | 0.00 | 0.00 | 27 | 1016.7 |
| 20260901014534 | 73 | 77 | 0.0 | 2.0 | 0.00 | 0.00 | 0.00 | 26 | 1016.5 |